LNR42DL FAOR-HTZA

Flight info

Callsign LNR42DL
Flight time 3h 7m
Altitude 41000
Route EGMEN1D EGMEN UQ2 EPSEK UM307 VBR UM310 DV
Aircraft A359/H-SDE2E3GHIJ1J3J4J5LM1ORWXY/LB1D1

Departure

Time 2026-05-07 15:38
Airport O.R. Tambo International Airport (FAOR)

Arrival

Time 2026-05-07 18:45
Airport Abeid Amani Karume International Airport (HTZA)
Time Latitude Longitude Altitude Speed Heading
2026-05-07 14:58 -26.13096 28.23333 5553 ft 0 kts 277°
2026-05-07 15:28 -26.13099 28.23355 5555 ft 4 kts 287°
2026-05-07 15:28 -26.13110 28.23382 5554 ft 4 kts 309°
2026-05-07 15:28 -26.13130 28.23401 5553 ft 4 kts 335°
2026-05-07 15:28 -26.13155 28.23409 5557 ft 4 kts 358°
2026-05-07 15:29 -26.13177 28.23408 5556 ft 0 kts
2026-05-07 15:31 -26.13173 28.23408 5554 ft 2 kts
2026-05-07 15:31 -26.13120 28.23426 5556 ft 10 kts 37°
2026-05-07 15:31 -26.13116 28.23483 5554 ft 9 kts 94°
2026-05-07 15:32 -26.13124 28.23573 5556 ft 14 kts 96°
2026-05-07 15:32 -26.13128 28.23682 5551 ft 12 kts 71°
2026-05-07 15:32 -26.13061 28.23721 5551 ft 12 kts 18°
2026-05-07 15:32 -26.12979 28.23748 5555 ft 13 kts 15°
2026-05-07 15:33 -26.12878 28.23779 5553 ft 16 kts 15°
2026-05-07 15:33 -26.12770 28.23813 5551 ft 16 kts 15°
2026-05-07 15:33 -26.12657 28.23847 5554 ft 18 kts 15°
2026-05-07 15:33 -26.12526 28.23888 5548 ft 22 kts 15°
2026-05-07 15:34 -26.12372 28.23935 5551 ft 24 kts 15°
2026-05-07 15:34 -26.12202 28.23989 5546 ft 27 kts 15°
2026-05-07 15:34 -26.12018 28.24045 5544 ft 28 kts 15°
2026-05-07 15:34 -26.11821 28.24106 5533 ft 31 kts 15°
2026-05-07 15:35 -26.11615 28.24170 5532 ft 31 kts 15°
2026-05-07 15:35 -26.11407 28.24234 5531 ft 31 kts 15°
2026-05-07 15:35 -26.11194 28.24300 5525 ft 33 kts 15°
2026-05-07 15:35 -26.11004 28.24359 5520 ft 27 kts 15°
2026-05-07 15:36 -26.10893 28.24452 5516 ft 20 kts 61°
2026-05-07 15:36 -26.10839 28.24563 5514 ft 8 kts 65°
2026-05-07 15:36 -26.10854 28.24604 5514 ft 4 kts 159°
2026-05-07 15:36 -26.10880 28.24602 5514 ft 4 kts 184°
2026-05-07 15:37 -26.10908 28.24593 5515 ft 9 kts 197°
2026-05-07 15:37 -26.11123 28.24523 5525 ft 62 kts 195°
2026-05-07 15:37 -26.11741 28.24333 5543 ft 120 kts 195°
2026-05-07 15:37 -26.12716 28.24031 5554 ft 170 kts 195°
2026-05-07 15:38 -26.13852 28.23698 6189 ft 165 kts 197°
2026-05-07 15:38 -26.14961 28.23373 6884 ft 164 kts 197°
2026-05-07 15:38 -26.16037 28.23048 7396 ft 161 kts 195°
2026-05-07 15:38 -26.17153 28.22717 7649 ft 172 kts 197°
2026-05-07 15:39 -26.18329 28.22313 7919 ft 182 kts 202°
2026-05-07 15:39 -26.19562 28.21856 8172 ft 194 kts 199°
2026-05-07 15:39 -26.20906 28.21412 8438 ft 210 kts 198°
2026-05-07 15:39 -26.22349 28.20940 8697 ft 223 kts 198°
2026-05-07 15:40 -26.23899 28.20457 8935 ft 239 kts 196°
2026-05-07 15:40 -26.25610 28.20261 9222 ft 257 kts 177°
2026-05-07 15:40 -26.27330 28.20970 9550 ft 276 kts 150°
2026-05-07 15:40 -26.28745 28.22487 9864 ft 293 kts 134°
2026-05-07 15:41 -26.30057 28.24250 10434 ft 297 kts 133°
2026-05-07 15:41 -26.31396 28.26066 10708 ft 309 kts 135°
2026-05-07 15:41 -26.32820 28.27950 10949 ft 323 kts 134°
2026-05-07 15:41 -26.34292 28.29898 11159 ft 334 kts 134°
2026-05-07 15:42 -26.35844 28.31919 11384 ft 350 kts 134°
2026-05-07 15:42 -26.37239 28.34194 11655 ft 364 kts 118°
2026-05-07 15:42 -26.37904 28.36951 12059 ft 374 kts 96°
2026-05-07 15:42 -26.37614 28.39852 12531 ft 379 kts 72°
2026-05-07 15:43 -26.36398 28.42448 12962 ft 379 kts 49°
2026-05-07 15:43 -26.34533 28.44456 13371 ft 379 kts 38°
2026-05-07 15:43 -26.32707 28.46640 13889 ft 383 kts 47°
2026-05-07 15:43 -26.31047 28.48957 14310 ft 387 kts 49°
2026-05-07 15:44 -26.29390 28.51325 14703 ft 390 kts 49°
2026-05-07 15:44 -26.27717 28.53729 15161 ft 394 kts 49°
2026-05-07 15:44 -26.26035 28.56155 15633 ft 396 kts 48°
2026-05-07 15:44 -26.24916 28.57766 15932 ft 397 kts 48°
2026-05-07 15:45 -26.23219 28.60205 16352 ft 398 kts 48°
2026-05-07 15:45 -26.20945 28.63469 16920 ft 402 kts 47°
2026-05-07 15:45 -26.19227 28.65933 17275 ft 404 kts 47°
2026-05-07 15:45 -26.17491 28.68422 17594 ft 408 kts 47°
2026-05-07 15:46 -26.14567 28.72591 18251 ft 411 kts 46°
2026-05-07 15:46 -26.12795 28.75118 18634 ft 414 kts 47°
2026-05-07 15:46 -26.11040 28.77632 19035 ft 415 kts 46°
2026-05-07 15:47 -26.09263 28.80187 19367 ft 420 kts 47°
2026-05-07 15:47 -26.07456 28.82759 19791 ft 421 kts 46°
2026-05-07 15:47 -26.05653 28.85313 20096 ft 422 kts 46°
2026-05-07 15:47 -26.03820 28.87899 20373 ft 426 kts 46°
2026-05-07 15:48 -26.01842 28.90311 20698 ft 421 kts 36°
2026-05-07 15:48 -25.99531 28.92191 21113 ft 411 kts 22°
2026-05-07 15:48 -25.96952 28.93445 21498 ft 399 kts
2026-05-07 15:48 -25.94256 28.94047 21826 ft 391 kts 359°
2026-05-07 15:49 -25.91566 28.94329 22156 ft 392 kts 357°
2026-05-07 15:49 -25.88841 28.94569 22553 ft 392 kts 356°
2026-05-07 15:49 -25.86109 28.94812 22948 ft 393 kts 356°
2026-05-07 15:49 -25.83374 28.95064 23208 ft 396 kts 356°
2026-05-07 15:50 -25.80618 28.95323 23467 ft 398 kts 356°
2026-05-07 15:50 -25.79016 28.95473 23601 ft 399 kts 357°
2026-05-07 15:50 -25.76731 28.95685 23866 ft 401 kts 357°
2026-05-07 15:50 -25.73988 28.95939 24188 ft 400 kts 356°
2026-05-07 15:51 -25.71194 28.96195 24419 ft 406 kts 356°
2026-05-07 15:51 -25.68372 28.96650 24848 ft 413 kts
2026-05-07 15:51 -25.65595 28.97652 25203 ft 424 kts 14°
2026-05-07 15:51 -25.62971 28.99254 25471 ft 438 kts 27°
2026-05-07 15:52 -25.60602 29.01473 25743 ft 451 kts 36°
2026-05-07 15:52 -25.58393 29.03939 26083 ft 457 kts 38°
2026-05-07 15:52 -25.56222 29.06518 26375 ft 459 kts 39°
2026-05-07 15:52 -25.54065 29.09136 26560 ft 461 kts 39°
2026-05-07 15:53 -25.51895 29.11765 26753 ft 464 kts 39°
2026-05-07 15:53 -25.49707 29.14407 27044 ft 464 kts 39°
2026-05-07 15:53 -25.47505 29.17032 27329 ft 465 kts 39°
2026-05-07 15:53 -25.45293 29.19653 27566 ft 466 kts 38°
2026-05-07 15:54 -25.43061 29.22277 27776 ft 469 kts 38°
2026-05-07 15:54 -25.40827 29.24941 28037 ft 472 kts 39°
2026-05-07 15:54 -25.38629 29.27580 28304 ft 472 kts 39°
2026-05-07 15:54 -25.36392 29.30263 28497 ft 475 kts 39°
2026-05-07 15:55 -25.34145 29.32938 28803 ft 476 kts 39°
2026-05-07 15:55 -25.31894 29.35616 29032 ft 475 kts 38°
2026-05-07 15:55 -25.29633 29.38312 29202 ft 479 kts 39°
2026-05-07 15:55 -25.27383 29.40989 29456 ft 479 kts 39°
2026-05-07 15:56 -25.25098 29.43709 29781 ft 482 kts 39°
2026-05-07 15:56 -25.22808 29.46432 30088 ft 481 kts 39°
2026-05-07 15:56 -25.20509 29.49158 30277 ft 485 kts 38°
2026-05-07 15:56 -25.18219 29.51849 30552 ft 487 kts 38°
2026-05-07 15:57 -25.15859 29.54612 30908 ft 488 kts 39°
2026-05-07 15:57 -25.13567 29.57312 31173 ft 489 kts 38°
2026-05-07 15:57 -25.11222 29.60083 31340 ft 493 kts 39°
2026-05-07 15:57 -25.08860 29.62879 31633 ft 497 kts 39°
2026-05-07 15:58 -25.06505 29.65678 32003 ft 497 kts 39°
2026-05-07 15:58 -25.04175 29.68450 32289 ft 500 kts 40°
2026-05-07 15:58 -25.01806 29.71273 32571 ft 502 kts 39°
2026-05-07 15:58 -24.99410 29.74102 32904 ft 503 kts 39°
2026-05-07 15:59 -24.97004 29.76933 33177 ft 505 kts 39°
2026-05-07 15:59 -24.94603 29.79772 33379 ft 506 kts 39°
2026-05-07 15:59 -24.92217 29.82573 33571 ft 507 kts 39°
2026-05-07 15:59 -24.89794 29.85416 33702 ft 510 kts 39°
2026-05-07 16:00 -24.87357 29.88279 33894 ft 512 kts 39°
2026-05-07 16:00 -24.84925 29.91128 34115 ft 510 kts 39°
2026-05-07 16:00 -24.82502 29.93978 34230 ft 511 kts 39°
2026-05-07 16:00 -24.80089 29.96827 34336 ft 516 kts 39°
2026-05-07 16:01 -24.77634 29.99731 34640 ft 516 kts 40°
2026-05-07 16:01 -24.75187 30.02632 34949 ft 515 kts 40°
2026-05-07 16:01 -24.72756 30.05521 35300 ft 514 kts 40°
2026-05-07 16:01 -24.70332 30.08423 35552 ft 512 kts 40°
2026-05-07 16:02 -24.67912 30.11304 35694 ft 513 kts 40°
2026-05-07 16:02 -24.65494 30.14150 35894 ft 514 kts 40°
2026-05-07 16:02 -24.63046 30.17032 36170 ft 514 kts 40°
2026-05-07 16:02 -24.60595 30.19922 36430 ft 514 kts 40°
2026-05-07 16:03 -24.58197 30.22772 36682 ft 515 kts 40°
2026-05-07 16:03 -24.55765 30.25687 36909 ft 515 kts 41°
2026-05-07 16:03 -24.53339 30.28603 37155 ft 515 kts 41°
2026-05-07 16:03 -24.50951 30.31475 37471 ft 514 kts 41°
2026-05-07 16:04 -24.48535 30.34378 37816 ft 512 kts 40°
2026-05-07 16:04 -24.46136 30.37257 38101 ft 510 kts 40°
2026-05-07 16:04 -24.43733 30.40133 38314 ft 511 kts 41°
2026-05-07 16:04 -24.41329 30.43006 38534 ft 511 kts 40°
2026-05-07 16:05 -24.38994 30.45911 38704 ft 516 kts 46°
2026-05-07 16:05 -24.37020 30.49245 38903 ft 526 kts 57°
2026-05-07 16:05 -24.35427 30.52872 39056 ft 530 kts 61°
2026-05-07 16:05 -24.33930 30.56572 39226 ft 531 kts 61°
2026-05-07 16:06 -24.32291 30.60186 39440 ft 526 kts 55°
2026-05-07 16:06 -24.30424 30.63632 39642 ft 523 kts 52°
2026-05-07 16:06 -24.28508 30.66961 39861 ft 521 kts 52°
2026-05-07 16:06 -24.26544 30.70303 40050 ft 518 kts 49°
2026-05-07 16:07 -24.24145 30.73155 40165 ft 502 kts 32°
2026-05-07 16:07 -24.21289 30.75281 40297 ft 491 kts 21°
2026-05-07 16:07 -24.18364 30.77250 40425 ft 496 kts 27°
2026-05-07 16:07 -24.15565 30.79515 40570 ft 502 kts 32°
2026-05-07 16:08 -24.12934 30.82050 40778 ft 505 kts 37°
2026-05-07 16:08 -24.10466 30.84731 40931 ft 508 kts 39°
2026-05-07 16:08 -24.08029 30.87571 40989 ft 511 kts 41°
2026-05-07 16:09 -24.03224 30.93380 41001 ft 516 kts 41°
2026-05-07 16:09 -23.98427 30.99167 40997 ft 515 kts 41°
2026-05-07 16:10 -23.93572 31.04946 41008 ft 515 kts 41°
2026-05-07 16:10 -23.88693 31.10715 41010 ft 516 kts 40°
2026-05-07 16:11 -23.83849 31.16426 41000 ft 515 kts 41°
2026-05-07 16:11 -23.78931 31.22161 40994 ft 516 kts 41°
2026-05-07 16:12 -23.74060 31.27920 40993 ft 514 kts 40°
2026-05-07 16:12 -23.69237 31.33644 40990 ft 517 kts 40°
2026-05-07 16:13 -23.64355 31.39396 40992 ft 514 kts 41°
2026-05-07 16:13 -23.59481 31.45102 40985 ft 514 kts 40°
2026-05-07 16:14 -23.54529 31.50720 40976 ft 508 kts 35°
2026-05-07 16:14 -23.48800 31.54880 40973 ft 488 kts 16°
2026-05-07 16:15 -23.42770 31.58351 40985 ft 499 kts 30°
2026-05-07 16:15 -23.37331 31.63075 40966 ft 506 kts 33°
2026-05-07 16:16 -23.31880 31.67998 40959 ft 507 kts 33°
2026-05-07 16:16 -23.26459 31.72830 40964 ft 506 kts 32°
2026-05-07 16:17 -23.20977 31.77642 40963 ft 506 kts 32°
2026-05-07 16:17 -23.15484 31.82432 40953 ft 505 kts 32°
2026-05-07 16:18 -23.09997 31.87209 40952 ft 505 kts 32°
2026-05-07 16:18 -23.04537 31.91960 40952 ft 505 kts 32°
2026-05-07 16:19 -22.99034 31.96746 40952 ft 506 kts 32°
2026-05-07 16:19 -22.93581 32.01526 40954 ft 507 kts 32°
2026-05-07 16:20 -22.88163 32.06436 40952 ft 506 kts 33°
2026-05-07 16:20 -22.82757 32.11348 40953 ft 506 kts 32°
2026-05-07 16:21 -22.77380 32.16205 40952 ft 506 kts 32°
2026-05-07 16:21 -22.71953 32.21088 40953 ft 506 kts 32°
2026-05-07 16:22 -22.66528 32.25962 40952 ft 506 kts 32°
2026-05-07 16:22 -22.61134 32.30803 40953 ft 506 kts 32°
2026-05-07 16:23 -22.55708 32.35669 40953 ft 506 kts 32°
2026-05-07 16:23 -22.50310 32.40504 40952 ft 506 kts 32°
2026-05-07 16:24 -22.44878 32.45366 40952 ft 506 kts 32°
2026-05-07 16:24 -22.39440 32.50227 40952 ft 506 kts 32°
2026-05-07 16:25 -22.34032 32.55056 40954 ft 506 kts 32°
2026-05-07 16:25 -22.28590 32.59911 40952 ft 506 kts 32°
2026-05-07 16:26 -22.23184 32.64729 40952 ft 506 kts 32°
2026-05-07 16:26 -22.17754 32.69563 40952 ft 506 kts 32°
2026-05-07 16:27 -22.12317 32.74398 40952 ft 506 kts 32°
2026-05-07 16:27 -22.06909 32.79203 40954 ft 506 kts 32°
2026-05-07 16:28 -22.01462 32.84055 40952 ft 506 kts 32°
2026-05-07 16:28 -21.96098 32.88931 40979 ft 508 kts 33°
2026-05-07 16:29 -21.90698 32.93851 40979 ft 508 kts 33°
2026-05-07 16:29 -21.85291 32.98762 40980 ft 507 kts 33°
2026-05-07 16:30 -21.79920 33.03624 40980 ft 507 kts 33°
2026-05-07 16:30 -21.74508 33.08507 40973 ft 507 kts 32°
2026-05-07 16:31 -21.69058 33.13343 40952 ft 506 kts 32°
2026-05-07 16:31 -21.63635 33.18138 40944 ft 506 kts 32°
2026-05-07 16:32 -21.58214 33.22938 40943 ft 506 kts 32°
2026-05-07 16:32 -21.52773 33.27759 40944 ft 506 kts 32°
2026-05-07 16:33 -21.47329 33.32579 40944 ft 506 kts 32°
2026-05-07 16:33 -21.41899 33.37383 40943 ft 506 kts 32°
2026-05-07 16:34 -21.37373 33.41383 40943 ft 506 kts 32°
2026-05-07 16:34 -21.31044 33.46970 40934 ft 506 kts 32°
2026-05-07 16:35 -21.26514 33.50965 40934 ft 506 kts 32°
2026-05-07 16:35 -21.21063 33.55768 40934 ft 506 kts 32°
2026-05-07 16:36 -21.15615 33.60563 40934 ft 506 kts 32°
2026-05-07 16:36 -21.10198 33.65326 40943 ft 506 kts 32°
2026-05-07 16:37 -21.04733 33.70127 40943 ft 507 kts 32°
2026-05-07 16:37 -20.99272 33.74919 40958 ft 507 kts 32°
2026-05-07 16:38 -20.93846 33.79678 40954 ft 507 kts 32°
2026-05-07 16:38 -20.88390 33.84457 40952 ft 507 kts 32°
2026-05-07 16:39 -20.82949 33.89218 40954 ft 507 kts 32°
2026-05-07 16:39 -20.77481 33.93998 40952 ft 507 kts 32°
2026-05-07 16:40 -20.71995 33.98791 40952 ft 507 kts 32°
2026-05-07 16:40 -20.66623 34.03652 40952 ft 510 kts 35°
2026-05-07 16:41 -20.61359 34.08755 40953 ft 510 kts 36°
2026-05-07 16:41 -20.56130 34.13825 40952 ft 510 kts 36°
2026-05-07 16:42 -20.50853 34.18880 40952 ft 510 kts 35°
2026-05-07 16:42 -20.45552 34.23924 40946 ft 509 kts 35°
2026-05-07 16:43 -20.40251 34.28959 40943 ft 509 kts 35°
2026-05-07 16:43 -20.34975 34.33968 40943 ft 509 kts 35°
2026-05-07 16:44 -20.29674 34.38998 40938 ft 509 kts 35°
2026-05-07 16:44 -20.24403 34.43994 40934 ft 509 kts 35°
2026-05-07 16:45 -20.19091 34.49024 40934 ft 509 kts 35°
2026-05-07 16:45 -20.13782 34.54047 40925 ft 509 kts 35°
2026-05-07 16:46 -20.08512 34.59028 40925 ft 509 kts 35°
2026-05-07 16:46 -20.03209 34.64036 40920 ft 509 kts 35°
2026-05-07 16:47 -19.97932 34.69015 40915 ft 509 kts 35°
2026-05-07 16:47 -19.92625 34.74016 40916 ft 509 kts 35°
2026-05-07 16:48 -19.87300 34.79031 40916 ft 509 kts 36°
2026-05-07 16:48 -19.82016 34.83988 40917 ft 509 kts 34°
2026-05-07 16:49 -19.76128 34.87892 40916 ft 491 kts 15°
2026-05-07 16:49 -19.69742 34.90405 40916 ft 487 kts 12°
2026-05-07 16:50 -19.63339 34.92661 40916 ft 487 kts 11°
2026-05-07 16:50 -19.56887 34.94913 40916 ft 487 kts 12°
2026-05-07 16:51 -19.50436 34.97193 40915 ft 487 kts 12°
2026-05-07 16:51 -19.44035 34.99470 40916 ft 487 kts 12°
2026-05-07 16:52 -19.37589 35.01765 40924 ft 487 kts 12°
2026-05-07 16:52 -19.31195 35.04038 40925 ft 487 kts 12°
2026-05-07 16:53 -19.24761 35.06323 40925 ft 487 kts 12°
2026-05-07 16:53 -19.18314 35.08610 40933 ft 487 kts 12°
2026-05-07 16:54 -19.11908 35.10880 40934 ft 487 kts 12°
2026-05-07 16:54 -19.05461 35.13164 40910 ft 488 kts 12°
2026-05-07 16:55 -18.99049 35.15432 40907 ft 488 kts 12°
2026-05-07 16:55 -18.92598 35.17713 40905 ft 488 kts 12°
2026-05-07 16:56 -18.86143 35.19994 40907 ft 488 kts 12°
2026-05-07 16:56 -18.76498 35.23399 40907 ft 488 kts 13°
2026-05-07 16:57 -18.70031 35.25679 40916 ft 488 kts 13°
2026-05-07 16:57 -18.63622 35.27937 40915 ft 488 kts 13°
2026-05-07 16:58 -18.57172 35.30210 40916 ft 488 kts 13°
2026-05-07 16:58 -18.50730 35.32481 40924 ft 488 kts 13°
2026-05-07 16:59 -18.44275 35.34754 40925 ft 488 kts 13°
2026-05-07 16:59 -18.37859 35.37011 40924 ft 488 kts 13°
2026-05-07 17:00 -18.31410 35.39279 40925 ft 488 kts 13°
2026-05-07 17:00 -18.24960 35.41546 40925 ft 488 kts 13°
2026-05-07 17:01 -18.18552 35.43796 40924 ft 488 kts 13°
2026-05-07 17:01 -18.12099 35.46060 40925 ft 488 kts 13°
2026-05-07 17:02 -18.05648 35.48321 40926 ft 488 kts 13°
2026-05-07 17:02 -17.99242 35.50565 40933 ft 488 kts 13°
2026-05-07 17:03 -17.92782 35.52826 40934 ft 488 kts 14°
2026-05-07 17:03 -17.86356 35.55074 40934 ft 488 kts 14°
2026-05-07 17:04 -17.79880 35.57337 40934 ft 488 kts 14°
2026-05-07 17:04 -17.73460 35.59579 40934 ft 488 kts 14°
2026-05-07 17:05 -17.67014 35.61829 40934 ft 488 kts 13°
2026-05-07 17:05 -17.60554 35.64081 40935 ft 488 kts 13°
2026-05-07 17:06 -17.54094 35.66332 40934 ft 488 kts 14°
2026-05-07 17:06 -17.47666 35.68570 40941 ft 488 kts 14°
2026-05-07 17:07 -17.41203 35.70816 40944 ft 488 kts 14°
2026-05-07 17:07 -17.34781 35.73045 40944 ft 488 kts 14°
2026-05-07 17:08 -17.28321 35.75286 40943 ft 488 kts 14°
2026-05-07 17:08 -17.21892 35.77515 40965 ft 489 kts 14°
2026-05-07 17:09 -17.15438 35.79752 40960 ft 489 kts 14°
2026-05-07 17:09 -17.08965 35.81994 40963 ft 489 kts 14°
2026-05-07 17:10 -17.02492 35.84233 40960 ft 489 kts 14°
2026-05-07 17:10 -16.96055 35.86459 40973 ft 489 kts 14°
2026-05-07 17:11 -16.89570 35.88699 40969 ft 489 kts 14°
2026-05-07 17:11 -16.83132 35.90922 40968 ft 489 kts 14°
2026-05-07 17:12 -16.76655 35.93157 40969 ft 490 kts 14°
2026-05-07 17:12 -16.70176 35.95390 40972 ft 490 kts 14°
2026-05-07 17:13 -16.63737 35.97608 40980 ft 490 kts 14°
2026-05-07 17:13 -16.57249 35.99842 40981 ft 490 kts 14°
2026-05-07 17:14 -16.50799 36.02061 40980 ft 490 kts 15°
2026-05-07 17:14 -16.44319 36.04288 40980 ft 490 kts 15°
2026-05-07 17:15 -16.37837 36.06515 40980 ft 489 kts 15°
2026-05-07 17:15 -16.31359 36.08739 40989 ft 489 kts 15°
2026-05-07 17:16 -16.24917 36.10949 40989 ft 490 kts 15°
2026-05-07 17:16 -16.18428 36.13174 40989 ft 490 kts 15°
2026-05-07 17:17 -16.11949 36.15393 40989 ft 490 kts 15°
2026-05-07 17:17 -16.05502 36.17601 40981 ft 490 kts 15°
2026-05-07 17:18 -15.99022 36.19818 40979 ft 490 kts 15°
2026-05-07 17:18 -15.92562 36.22005 40980 ft 489 kts 14°
2026-05-07 17:19 -15.86074 36.24169 40981 ft 489 kts 14°
2026-05-07 17:19 -15.79591 36.26330 40980 ft 489 kts 14°
2026-05-07 17:20 -15.73099 36.28499 40981 ft 489 kts 14°
2026-05-07 17:20 -15.67700 36.30303 40979 ft 489 kts 14°
2026-05-07 17:21 -15.60158 36.32823 41031 ft 490 kts 15°
2026-05-07 17:21 -15.54751 36.34628 41029 ft 489 kts 15°
2026-05-07 17:22 -15.48262 36.36793 41031 ft 489 kts 15°
2026-05-07 17:22 -15.41778 36.38954 41033 ft 489 kts 15°
2026-05-07 17:23 -15.35332 36.41101 41029 ft 489 kts 15°
2026-05-07 17:23 -15.28839 36.43263 41033 ft 489 kts 15°
2026-05-07 17:24 -15.22390 36.45409 41037 ft 488 kts 15°
2026-05-07 17:24 -15.15901 36.47566 41048 ft 488 kts 15°
2026-05-07 17:25 -15.09462 36.49706 41045 ft 488 kts 15°
2026-05-07 17:25 -15.02987 36.51856 41053 ft 488 kts 15°
2026-05-07 17:26 -14.96517 36.54003 41064 ft 488 kts 15°
2026-05-07 17:26 -14.90039 36.56151 41063 ft 488 kts 15°
2026-05-07 17:27 -14.83569 36.58296 41063 ft 488 kts 15°
2026-05-07 17:27 -14.77139 36.60426 41063 ft 488 kts 15°
2026-05-07 17:28 -14.70674 36.62566 41063 ft 487 kts 15°
2026-05-07 17:28 -14.64197 36.64708 41075 ft 487 kts 15°
2026-05-07 17:29 -14.57763 36.66835 41072 ft 487 kts 15°
2026-05-07 17:29 -14.51289 36.68975 41074 ft 487 kts 15°
2026-05-07 17:30 -14.44863 36.71097 41072 ft 487 kts 15°
2026-05-07 17:30 -14.38384 36.73234 41069 ft 487 kts 15°
2026-05-07 17:31 -14.31943 36.75359 41081 ft 487 kts 15°
2026-05-07 17:31 -14.25488 36.77487 41085 ft 487 kts 15°
2026-05-07 17:32 -14.19063 36.79603 41083 ft 487 kts 15°
2026-05-07 17:32 -14.12596 36.81732 41082 ft 487 kts 15°
2026-05-07 17:33 -14.06142 36.83855 41082 ft 487 kts 15°
2026-05-07 17:33 -13.99720 36.85972 41082 ft 487 kts 15°
2026-05-07 17:34 -13.93268 36.88131 41081 ft 487 kts 16°
2026-05-07 17:34 -13.86842 36.90290 41077 ft 487 kts 16°
2026-05-07 17:35 -13.80377 36.92457 41079 ft 487 kts 16°
2026-05-07 17:35 -13.73929 36.94614 41081 ft 487 kts 16°
2026-05-07 17:36 -13.67521 36.96755 41083 ft 486 kts 16°
2026-05-07 17:36 -13.61066 36.98910 41082 ft 487 kts 16°
2026-05-07 17:37 -13.54620 37.01061 41080 ft 487 kts 16°
2026-05-07 17:37 -13.48180 37.03210 41082 ft 486 kts 16°
2026-05-07 17:38 -13.41754 37.05353 41081 ft 486 kts 16°
2026-05-07 17:38 -13.35307 37.07501 41081 ft 487 kts 17°
2026-05-07 17:39 -13.28885 37.09640 41082 ft 487 kts 17°
2026-05-07 17:39 -13.22434 37.11787 41089 ft 487 kts 17°
2026-05-07 17:40 -13.16015 37.13922 41090 ft 487 kts 17°
2026-05-07 17:40 -13.09568 37.16066 41089 ft 487 kts 17°
2026-05-07 17:41 -13.03110 37.18212 41091 ft 487 kts 17°
2026-05-07 17:41 -12.96690 37.20344 41091 ft 487 kts 17°
2026-05-07 17:42 -12.90227 37.22489 41099 ft 487 kts 17°
2026-05-07 17:42 -12.83767 37.24632 41104 ft 487 kts 17°
2026-05-07 17:43 -12.77332 37.26793 41091 ft 487 kts 17°
2026-05-07 17:43 -12.70930 37.29004 41096 ft 488 kts 18°
2026-05-07 17:44 -12.64489 37.31230 41088 ft 488 kts 18°
2026-05-07 17:44 -12.58053 37.33444 41095 ft 488 kts 18°
2026-05-07 17:45 -12.51632 37.35646 41096 ft 488 kts 18°
2026-05-07 17:45 -12.45187 37.37855 41070 ft 488 kts 18°
2026-05-07 17:46 -12.38731 37.40066 41068 ft 488 kts 18°
2026-05-07 17:46 -12.32324 37.42260 41076 ft 488 kts 18°
2026-05-07 17:47 -12.25865 37.44471 41068 ft 488 kts 18°
2026-05-07 17:47 -12.19455 37.46664 41063 ft 488 kts 18°
2026-05-07 17:48 -12.13005 37.48869 41063 ft 488 kts 18°
2026-05-07 17:48 -12.06548 37.51075 41064 ft 488 kts 18°
2026-05-07 17:49 -12.00132 37.53267 41063 ft 488 kts 18°
2026-05-07 17:49 -11.93677 37.55470 41064 ft 488 kts 18°
2026-05-07 17:50 -11.87258 37.57661 41058 ft 488 kts 18°
2026-05-07 17:50 -11.80792 37.59866 41054 ft 488 kts 18°
2026-05-07 17:51 -11.74372 37.62054 41055 ft 488 kts 18°
2026-05-07 17:51 -11.67916 37.64254 41054 ft 488 kts 18°
2026-05-07 17:52 -11.61506 37.66434 41054 ft 488 kts 18°
2026-05-07 17:52 -11.55021 37.68569 41054 ft 488 kts 17°
2026-05-07 17:53 -11.48544 37.70673 41054 ft 488 kts 17°
2026-05-07 17:53 -11.42068 37.72785 41054 ft 488 kts 17°
2026-05-07 17:54 -11.35637 37.74890 41048 ft 488 kts 17°
2026-05-07 17:54 -11.29140 37.77018 41048 ft 488 kts 17°
2026-05-07 17:55 -11.22704 37.79125 41043 ft 488 kts 17°
2026-05-07 17:55 -11.16231 37.81242 41043 ft 488 kts 17°
2026-05-07 17:56 -11.09752 37.83361 41042 ft 488 kts 17°
2026-05-07 17:56 -11.03316 37.85464 41045 ft 488 kts 17°
2026-05-07 17:57 -10.97901 37.87233 41048 ft 487 kts 17°
2026-05-07 17:57 -10.90390 37.89685 41045 ft 487 kts 17°
2026-05-07 17:58 -10.83953 37.91785 41041 ft 487 kts 17°
2026-05-07 17:58 -10.77493 37.93893 41036 ft 487 kts 17°
2026-05-07 17:59 -10.71038 37.95997 41038 ft 487 kts 17°
2026-05-07 17:59 -10.64584 37.98101 41026 ft 486 kts 17°
2026-05-07 18:00 -10.58160 38.00193 41034 ft 486 kts 17°
2026-05-07 18:00 -10.51712 38.02293 41021 ft 486 kts 17°
2026-05-07 18:01 -10.45307 38.04378 41029 ft 486 kts 17°
2026-05-07 18:01 -10.38870 38.06472 41025 ft 486 kts 17°
2026-05-07 18:02 -10.29198 38.09617 41020 ft 485 kts 17°
2026-05-07 18:03 -10.22792 38.11698 41010 ft 485 kts 17°
2026-05-07 18:03 -10.16347 38.13792 41000 ft 485 kts 17°
2026-05-07 18:04 -10.09920 38.15879 41001 ft 485 kts 17°
2026-05-07 18:04 -10.03668 38.17908 41001 ft 485 kts 17°
2026-05-07 18:05 -9.97267 38.19985 41001 ft 485 kts 17°
2026-05-07 18:05 -9.90826 38.22074 40996 ft 485 kts 17°
2026-05-07 18:06 -9.84380 38.24163 40997 ft 485 kts 17°
2026-05-07 18:06 -9.77976 38.26238 40998 ft 485 kts 17°
2026-05-07 18:07 -9.71527 38.28327 41000 ft 485 kts 17°
2026-05-07 18:07 -9.65122 38.30401 40994 ft 485 kts 17°
2026-05-07 18:08 -9.58685 38.32484 40990 ft 485 kts 17°
2026-05-07 18:08 -9.52285 38.34555 40990 ft 485 kts 17°
2026-05-07 18:09 -9.45851 38.36635 40989 ft 485 kts 18°
2026-05-07 18:09 -9.39415 38.38716 40990 ft 485 kts 18°
2026-05-07 18:10 -9.34063 38.40445 40990 ft 485 kts 18°
2026-05-07 18:10 -9.26568 38.42867 40990 ft 485 kts 18°
2026-05-07 18:11 -9.21207 38.44598 40990 ft 485 kts 18°
2026-05-07 18:11 -9.14762 38.46678 40981 ft 484 kts 18°
2026-05-07 18:12 -9.08373 38.48739 40981 ft 484 kts 18°
2026-05-07 18:12 -9.01936 38.50815 40981 ft 484 kts 18°
2026-05-07 18:13 -8.95536 38.52879 40981 ft 484 kts 18°
2026-05-07 18:13 -8.89099 38.54953 40981 ft 484 kts 18°
2026-05-07 18:14 -8.82711 38.57012 40980 ft 484 kts 18°
2026-05-07 18:14 -8.76287 38.59080 40981 ft 484 kts 18°
2026-05-07 18:15 -8.69872 38.61146 40974 ft 483 kts 18°
2026-05-07 18:15 -8.63483 38.63202 40971 ft 483 kts 18°
2026-05-07 18:16 -8.57050 38.65272 40970 ft 483 kts 18°
2026-05-07 18:16 -8.50627 38.67338 40970 ft 483 kts 18°
2026-05-07 18:17 -8.44243 38.69392 40971 ft 483 kts 18°
2026-05-07 18:17 -8.37825 38.71459 40971 ft 483 kts 18°
2026-05-07 18:18 -8.31429 38.73519 40972 ft 483 kts 18°
2026-05-07 18:18 -8.25025 38.75580 40961 ft 483 kts 18°
2026-05-07 18:19 -8.18614 38.77643 40964 ft 483 kts 18°
2026-05-07 18:19 -8.12211 38.79702 40960 ft 483 kts 18°
2026-05-07 18:20 -8.05848 38.81748 40956 ft 483 kts 18°
2026-05-07 18:20 -8.02661 38.82772 40524 ft 478 kts 18°
2026-05-07 18:20 -7.99489 38.83792 39720 ft 481 kts 18°
2026-05-07 18:20 -7.96282 38.84822 38896 ft 484 kts 18°
2026-05-07 18:21 -7.93065 38.85856 38069 ft 486 kts 18°
2026-05-07 18:21 -7.89826 38.86896 37226 ft 488 kts 18°
2026-05-07 18:21 -7.86586 38.87937 36394 ft 490 kts 18°
2026-05-07 18:21 -7.83322 38.88983 35542 ft 492 kts 18°
2026-05-07 18:22 -7.80053 38.90032 34675 ft 494 kts 18°
2026-05-07 18:22 -7.77881 38.90730 34106 ft 495 kts 18°
2026-05-07 18:22 -7.73481 38.92143 33036 ft 495 kts 18°
2026-05-07 18:22 -7.70232 38.93187 32248 ft 494 kts 18°
2026-05-07 18:23 -7.66953 38.94239 31515 ft 493 kts 18°
2026-05-07 18:23 -7.63687 38.95286 30877 ft 489 kts 18°
2026-05-07 18:23 -7.60451 38.96324 30320 ft 484 kts 18°
2026-05-07 18:23 -7.57292 38.97338 29779 ft 479 kts 18°
2026-05-07 18:24 -7.54129 38.98353 29234 ft 474 kts 18°
2026-05-07 18:24 -7.50995 38.99357 28697 ft 469 kts 18°
2026-05-07 18:24 -7.47902 39.00349 28157 ft 465 kts 18°
2026-05-07 18:24 -7.44834 39.01332 27622 ft 460 kts 18°
2026-05-07 18:25 -7.41788 39.02307 27086 ft 455 kts 18°
2026-05-07 18:25 -7.38813 39.03260 26557 ft 451 kts 18°
2026-05-07 18:25 -7.35824 39.04217 26017 ft 446 kts 18°
2026-05-07 18:25 -7.32915 39.05149 25504 ft 441 kts 18°
2026-05-07 18:26 -7.29991 39.06086 24966 ft 436 kts 18°
2026-05-07 18:26 -7.27117 39.07007 24450 ft 431 kts 18°
2026-05-07 18:26 -7.24263 39.07921 23914 ft 427 kts 18°
2026-05-07 18:26 -7.21443 39.08824 23396 ft 422 kts 18°
2026-05-07 18:27 -7.18692 39.09704 22877 ft 417 kts 18°
2026-05-07 18:27 -7.15941 39.10585 22365 ft 413 kts 18°
2026-05-07 18:27 -7.13212 39.11458 21838 ft 408 kts 18°
2026-05-07 18:27 -7.10519 39.12319 21336 ft 404 kts 18°
2026-05-07 18:28 -7.07851 39.13173 20830 ft 399 kts 18°
2026-05-07 18:28 -7.05217 39.14017 20329 ft 395 kts 18°
2026-05-07 18:28 -7.02608 39.14852 19829 ft 390 kts 18°
2026-05-07 18:28 -7.00053 39.15669 19334 ft 386 kts 18°
2026-05-07 18:29 -6.97508 39.16483 18857 ft 381 kts 18°
2026-05-07 18:29 -6.94990 39.17289 18370 ft 377 kts 18°
2026-05-07 18:29 -6.92505 39.18085 17890 ft 373 kts 18°
2026-05-07 18:29 -6.90017 39.18797 17413 ft 369 kts 12°
2026-05-07 18:30 -6.87491 39.18999 16835 ft 368 kts 359°
2026-05-07 18:30 -6.84931 39.18844 16306 ft 366 kts 355°
2026-05-07 18:30 -6.82405 39.18622 15830 ft 362 kts 355°
2026-05-07 18:30 -6.79901 39.18390 15362 ft 358 kts 355°
2026-05-07 18:31 -6.77435 39.18155 14900 ft 354 kts 355°
2026-05-07 18:31 -6.75025 39.17922 14450 ft 350 kts 355°
2026-05-07 18:31 -6.72615 39.17689 14007 ft 345 kts 354°
2026-05-07 18:31 -6.70236 39.17458 13551 ft 341 kts 354°
2026-05-07 18:32 -6.67880 39.17228 13109 ft 337 kts 354°
2026-05-07 18:32 -6.65556 39.17001 12668 ft 333 kts 354°
2026-05-07 18:32 -6.63283 39.16779 12241 ft 332 kts 354°
2026-05-07 18:32 -6.60992 39.16556 11811 ft 330 kts 354°
2026-05-07 18:33 -6.58709 39.16334 11377 ft 328 kts 354°
2026-05-07 18:33 -6.56443 39.16112 10941 ft 326 kts 354°
2026-05-07 18:33 -6.54186 39.15892 10581 ft 321 kts 354°
2026-05-07 18:33 -6.52005 39.15679 10435 ft 308 kts 355°
2026-05-07 18:34 -6.49914 39.15475 10287 ft 295 kts 355°
2026-05-07 18:34 -6.47901 39.15278 10122 ft 287 kts 355°
2026-05-07 18:34 -6.45926 39.15085 9834 ft 285 kts 355°
2026-05-07 18:34 -6.43914 39.14889 9703 ft 299 kts 355°
2026-05-07 18:35 -6.41821 39.14686 9617 ft 302 kts 355°
2026-05-07 18:35 -6.39725 39.14481 9374 ft 301 kts 355°
2026-05-07 18:35 -6.37662 39.14280 8876 ft 301 kts 355°
2026-05-07 18:35 -6.35574 39.14077 8464 ft 299 kts 355°
2026-05-07 18:36 -6.33508 39.13874 8109 ft 296 kts 355°
2026-05-07 18:36 -6.31460 39.13675 7812 ft 296 kts 355°
2026-05-07 18:36 -6.29437 39.13477 7484 ft 295 kts 355°
2026-05-07 18:36 -6.27398 39.13279 7146 ft 292 kts 355°
2026-05-07 18:37 -6.25375 39.13082 6821 ft 291 kts 355°
2026-05-07 18:37 -6.23362 39.12885 6461 ft 289 kts 355°
2026-05-07 18:37 -6.21356 39.12689 6128 ft 289 kts 355°
2026-05-07 18:37 -6.19365 39.12496 5779 ft 286 kts 356°
2026-05-07 18:38 -6.17385 39.12306 5433 ft 286 kts 355°
2026-05-07 18:38 -6.15399 39.12112 5090 ft 284 kts 356°
2026-05-07 18:38 -6.13460 39.11925 4786 ft 282 kts 355°
2026-05-07 18:38 -6.11537 39.11731 4608 ft 271 kts 355°
2026-05-07 18:39 -6.09691 39.11547 4449 ft 260 kts 356°
2026-05-07 18:39 -6.07929 39.11414 4301 ft 249 kts
2026-05-07 18:39 -6.06269 39.11775 3936 ft 243 kts 31°
2026-05-07 18:39 -6.05070 39.12894 3608 ft 234 kts 60°
2026-05-07 18:40 -6.04358 39.14326 3327 ft 230 kts 70°
2026-05-07 18:40 -6.03937 39.15857 3220 ft 228 kts 88°
2026-05-07 18:40 -6.04262 39.17381 3145 ft 224 kts 120°
2026-05-07 18:40 -6.05319 39.18504 3067 ft 218 kts 142°
2026-05-07 18:41 -6.06521 39.19368 2942 ft 206 kts 144°
2026-05-07 18:41 -6.07656 39.20152 2836 ft 195 kts 144°
2026-05-07 18:41 -6.08789 39.20884 2557 ft 193 kts 153°
2026-05-07 18:41 -6.10071 39.21297 2260 ft 194 kts 170°
2026-05-07 18:42 -6.11400 39.21402 1999 ft 187 kts 174°
2026-05-07 18:42 -6.12645 39.21522 1733 ft 172 kts 171°
2026-05-07 18:42 -6.13790 39.21645 1505 ft 158 kts 172°
2026-05-07 18:42 -6.14838 39.21753 1290 ft 147 kts 172°
2026-05-07 18:43 -6.15812 39.21851 1134 ft 135 kts 172°
2026-05-07 18:43 -6.16742 39.21945 960 ft 133 kts 172°
2026-05-07 18:43 -6.17669 39.22035 783 ft 134 kts 172°
2026-05-07 18:43 -6.18586 39.22124 593 ft 133 kts 172°
2026-05-07 18:44 -6.19503 39.22220 408 ft 133 kts 172°
2026-05-07 18:44 -6.20420 39.22313 243 ft 134 kts 173°
2026-05-07 18:44 -6.21345 39.22406 81 ft 133 kts 173°
2026-05-07 18:44 -6.22160 39.22486 57 ft 96 kts 174°
2026-05-07 18:45 -6.22667 39.22537 59 ft 49 kts 174°
2026-05-07 18:45 -6.22869 39.22558 60 ft 20 kts 175°
2026-05-07 18:45 -6.22968 39.22560 63 ft 7 kts 206°
2026-05-07 18:45 -6.22990 39.22509 60 ft 10 kts 262°
2026-05-07 18:46 -6.22994 39.22472 60 ft 3 kts 264°
2026-05-07 18:46 -6.22998 39.22437 60 ft 7 kts 264°
2026-05-07 18:46 -6.22971 39.22397 53 ft 8 kts 336°
2026-05-07 18:46 -6.22910 39.22390 55 ft 10 kts 354°
2026-05-07 18:47 -6.22832 39.22382 60 ft 14 kts 354°
2026-05-07 18:47 -6.22720 39.22371 63 ft 18 kts 354°
2026-05-07 18:47 -6.22584 39.22358 63 ft 21 kts 354°
2026-05-07 18:47 -6.22436 39.22343 64 ft 17 kts 354°
2026-05-07 18:48 -6.22399 39.22339 64 ft 0 kts 354°
2026-05-07 18:48 -6.22396 39.22327 61 ft 3 kts 276°
2026-05-07 18:48 -6.22411 39.22301 55 ft 6 kts 239°
2026-05-07 18:49 -6.22432 39.22259 56 ft 7 kts 256°
2026-05-07 18:49 -6.22436 39.22193 62 ft 4 kts 291°
2026-05-07 18:49 -6.22391 39.22184 54 ft 9 kts 349°
2026-05-07 18:49 -6.22378 39.22183 57 ft 0 kts 357°
2026-05-07 18:50 -6.22355 39.22182 60 ft 3 kts 357°
2026-05-07 18:50 -6.22350 39.22182 63 ft 2 kts 356°
2026-05-07 18:50 -6.22344 39.22181 63 ft 0 kts 355°
2026-05-07 18:51 -6.22335 39.22180 62 ft 0 kts 355°